Texarkana, AR

2:16 AM CST on November 23, 2017 (GMT -0600)
Texarkana Regional-Webb

Weather History for KTXK - September, 2013

Change the Weather History Date:

Sunday, September 8, 2013

  Actual Average Record
Temperature  
Mean Temperature 86 °F 78 °F  
Max Temperature 99 °F 89 °F 103 °F (1925)
Min Temperature 73 °F 66 °F 49 °F (1918)
Degree Days  
Heating Degree Days 0 0  
Month to date heating degree days 0 0  
Since 1 July heating degree days 0 0  
Cooling Degree Days 21 13  
Month to date cooling degree days 157 109  
Year to date cooling degree days 1972 1897  
Growing Degree Days 37 (Base 50)    
Moisture  
Dew Point 63 °F    
Average Humidity 50    
Maximum Humidity 74    
Minimum Humidity 25    
Precipitation  
Precipitation 0.00 in 0.12 in 1.17 in (1974)
Month to date precipitation 0.14 0.91  
Year to date precipitation 19.72 32.33  
Snow  
Snow 0.00 in - - ()
Month to date snowfall 0.0  
Since 1 July snowfall 0.0  
Since 1 September snowfall 0.0  
Snow Depth 0.00 in    
Sea Level Pressure  
Sea Level Pressure 29.94 in    
Wind  
Wind Speed 5 mph (SW)    
Max Wind Speed 13 mph    
Max Gust Speed 15 mph    
Visibility 10 miles    
Events      
T = Trace of Precipitation, MM = Missing Value Source: NWS Daily Summary

Daily Weather History Graph

Daily Weather History Graph

Search for Another Location

Airport or City:

Trip Planner

Search our weather history database for the weather conditions in past years. The results will help you decide how hot, cold, wet, or windy it might be!

Date:

Astronomy

Sep. 08, 2013 Rise Set
Actual Time 6:54 AM CDT 7:31 PM CDT
Civil Twilight 6:29 AM CDT 7:56 PM CDT
Nautical Twilight 6:00 AM CDT 8:26 PM CDT
Astronomical Twilight 5:30 AM CDT 8:56 PM CDT
Moon 10:00 AM CDT (9/8) 9:21 PM CDT (9/8)
Length of Visible Light 13h 26m
Length of Day
12h 36m
Waxing Crescent, 11% of the Moon is Illuminated
Sep 8
Waxing Crescent
Sep 12
First Quarter
Sep 19
Full
Sep 26
Last Quarter
Oct 4
New

Hourly Weather History & Observations

Time (CDT) Temp. Heat Index Dew Point Humidity Pressure Visibility Wind Dir Wind Speed Gust Speed Precip Events Conditions
12:53 AM 80.1 °F 81.7 °F 64.0 °F 58% 29.95 in 10.0 mi SSW 6.9 mph - N/A   Clear
1:53 AM 78.1 °F - 64.9 °F 64% 29.95 in 10.0 mi SSW 5.8 mph - N/A   Clear
2:53 AM 78.1 °F - 66.9 °F 68% 29.95 in 10.0 mi SW 6.9 mph - N/A   Clear
3:53 AM 75.9 °F - 66.9 °F 74% 29.96 in 10.0 mi SW 4.6 mph - N/A   Clear
4:53 AM 75.0 °F - 66.9 °F 76% 29.96 in 10.0 mi WSW 5.8 mph - N/A   Clear
5:53 AM 75.0 °F - 66.9 °F 76% 29.97 in 10.0 mi SSW 3.5 mph - N/A   Clear
6:53 AM 75.0 °F - 66.9 °F 76% 29.98 in 10.0 mi Calm Calm - N/A   Clear
7:53 AM 75.9 °F - 66.9 °F 74% 29.99 in 10.0 mi Calm Calm - N/A   Clear
8:53 AM 81.0 °F 83.3 °F 66.9 °F 62% 29.99 in 10.0 mi NW 8.1 mph - N/A   Clear
9:53 AM 84.9 °F 87.1 °F 66.0 °F 53% 30.00 in 10.0 mi NW 8.1 mph - N/A   Clear
10:53 AM 89.1 °F 90.3 °F 64.0 °F 43% 30.00 in 10.0 mi NW 6.9 mph - N/A   Clear
11:53 AM 91.9 °F 93.3 °F 64.0 °F 39% 29.99 in 10.0 mi WSW 5.8 mph - N/A   Clear
12:53 PM 93.9 °F 95.2 °F 63.0 °F 36% 29.97 in 10.0 mi Variable 5.8 mph - N/A   Clear
1:53 PM 96.1 °F 97.3 °F 63.0 °F 33% 29.95 in 10.0 mi WSW 9.2 mph - N/A   Partly Cloudy
2:53 PM 97.0 °F 97.8 °F 62.1 °F 31% 29.92 in 10.0 mi Variable 4.6 mph - N/A   Mostly Cloudy
3:53 PM 98.1 °F 98.6 °F 61.0 °F 29% 29.91 in 10.0 mi WSW 4.6 mph - N/A   Clear
4:53 PM 99.0 °F 98.1 °F 57.9 °F 25% 29.89 in 10.0 mi Variable 3.5 mph - N/A   Clear
5:53 PM 97.0 °F 95.3 °F 55.9 °F 25% 29.87 in 10.0 mi SSE 6.9 mph - N/A   Clear
6:53 PM 95.0 °F 94.4 °F 59.0 °F 30% 29.88 in 10.0 mi SSE 4.6 mph - N/A   Clear
7:53 PM 90.0 °F 90.0 °F 61.0 °F 38% 29.89 in 10.0 mi South 3.5 mph - N/A   Clear
8:53 PM 86.0 °F 86.3 °F 62.1 °F 44% 29.91 in 10.0 mi South 4.6 mph - N/A   Clear
9:53 PM 88.0 °F 87.6 °F 60.1 °F 39% 29.93 in 10.0 mi South 8.1 mph - N/A   Clear
10:53 PM 84.9 °F 85.4 °F 62.1 °F 46% 29.93 in 10.0 mi South 5.8 mph - N/A   Clear
11:53 PM 82.9 °F 84.0 °F 63.0 °F 51% 29.93 in 10.0 mi SSW 4.6 mph - N/A   Clear